Regional Weather Roundup
Issued by NWS

Home | Current Version | Previous Version | Graphics & Text | Print | Product List | Glossary On
Versions: 1 2 3 4 5 6 7 8 9 10 11 12 13 14 15 16 17 18 19 20 21 22 23 24 25 26 27 28 29 30 31 32 33 34 35 36 37 38 39 40 41 42 43 44 45 46 47 48 49 50
000
ASUS43 KFSD 190002
RWRSD

WEATHER ROUNDUP FOR SOUTH DAKOTA
NATIONAL WEATHER SERVICE SIOUX FALLS SD
700 PM CDT THU SEP 18 2014

NOTE: "FAIR" INDICATES FEW OR NO CLOUDS BELOW 12,000 FEET WITH NO
SIGNIFICANT WEATHER AND/OR OBSTRUCTIONS TO VISIBILITY.


SDZ001>005-009-010-012>017-190100-
NORTHWEST AND NORTH CENTRAL SOUTH DAKOTA

CITY           SKY/WX    TMP DP  RH WIND       PRES   REMARKS
FAITH            N/A     78  65  63 SE9       29.72F
MOBRIDGE       CLOUDY    77  62  59 S10       29.70F
$$

SDZ012>016-024>037-041>051-057-063-072>074-190100-
SOUTHWEST AND SOUTH CENTRAL SOUTH DAKOTA

CITY           SKY/WX    TMP DP  RH WIND       PRES   REMARKS
RAPID CTY ARPT MOCLDY    85  53  33 SE14      29.72F
PIERRE         MOCLDY    79  63  57 S13       29.72F
CUSTER         MOCLDY    79  45  29 S6        29.91S
ELLSWORTH AFB  MOCLDY    84  55  36 SE10      29.72F
PHILIP         PTCLDY    84  65  52 SE12      29.70F
PINE RIDGE     PTCLDY    84  61  45 S15G24    29.77F
WINNER         FAIR      80  61  52 S15       29.79F
$$

SDZ004>011-016>023-039-040-190100-
NORTHEAST SOUTH DAKOTA

CITY           SKY/WX    TMP DP  RH WIND       PRES   REMARKS
ABERDEEN       PTCLDY    73  61  65 S13       29.79F
WATERTOWN      MOCLDY    70  56  61 S13       29.88S
SISSETON         N/A     72  58  61 S12       29.83F
$$

SDZ017-020-022-023-036>040-048>070-190100-
SOUTHEAST SOUTH DAKOTA

CITY           SKY/WX    TMP DP  RH WIND       PRES   REMARKS
SIOUX FALLS    PTCLDY    71  55  56 S10G22    29.91F
HURON          PTCLDY    72  56  57 S10G20    29.84R
CHAMBERLAIN    PTCLDY    74  60  60 SE12      29.80F
MITCHELL       CLEAR     72  58  61 SE14      29.85F
YANKTON        CLEAR     72  59  64 SE10      29.89F
$$

ABBREVIATIONS USED IN REMARKS
   TC - TEMPERATURE IN CELSIUS
  WCI - WIND CHILL INDEX
   HX - HEAT INDEX
  VSB - VISIBILITY




USA.gov is the U.S. government's official web portal to all federal, state and local government web resources and services.